Location: Rowland
(34.5359°N, 79.2929°W)
Time: 16:18:16
(UTC+00:00)

S-56A Canister/Altair - Pass Details

Date: 09 October 2022
Orbit: 638 x 2494 km, 38.9° (Epoch: 06 December)

Event Time Altitude Azimuth Distance (km) Brightness Sun altitude
Exits shadow 10:16:50 15° 284° (WNW) 3,171 10.1 -13.4°
Maximum altitude 10:23:48 51° 215° (SW) 1,373 8.6 -12.0°
Drops below altitude 10° 10:29:32 10° 141° (SE) 2,509 10.7 -10.8°
Sets 10:31:43 0° 135° (SE) 3,287 11.5 -10.3°
